Weather History for Crestview, FL

Change the Weather History Date:

Tuesday, November 22, 2011

  Actual Average Record
Temperature  
Mean Temperature 68 °F -  
Max Temperature 77 °F - - ()
Min Temperature 60 °F - - ()
Cooling Degree Days 4    
Growing Degree Days 18 (Base 50)    
Moisture  
Dew Point 68 °F    
Average Humidity 90    
Maximum Humidity 100    
Minimum Humidity 75    
Precipitation  
Precipitation 0.15 in - - ()
Sea Level Pressure  
Sea Level Pressure 30.06 in    
Wind  
Wind Speed 6 mph (South)    
Max Wind Speed 17 mph    
Max Gust Speed 23 mph    
Visibility 8 miles    
Events Rain    
T = Trace of Precipitation, MM = Missing Value Source: NWS Daily Summary

Daily Weather History Graph

Daily Weather History Graph

Search for Another Location

Airport:

Trip Planner

Search our weather history database for the weather conditions in past years. The results will help you decide how hot, cold, wet, or windy it might be!

Date:

Astronomy

Nov. 22, 2011 Rise Set
Actual Time 6:18 AM CST 4:46 PM CST
Civil Twilight 5:52 AM CST 5:11 PM CST
Nautical Twilight 5:22 AM CST 5:41 PM CST
Astronomical Twilight 4:53 AM CST 6:10 PM CST
Moon 3:16 AM CST (11/22) 2:38 PM CST (11/22)
Length of Visible Light 11h 19m
Length of Day
10h 28m
Waning Crescent, 9% of the Moon is Illuminated
Nov 22
Waning Crescent
Nov 25
New
Dec 2
First Quarter
Dec 10
Full
Dec 17
Last Quarter

Hourly Weather History & Observations

Time (CST) Temp. Dew Point Humidity Pressure Visibility Wind Dir Wind Speed Gust Speed Precip Events Conditions
3:55 AM 61.7 °F 57.4 °F 86% 30.09 in 10.0 mi Calm Calm - N/A   Clear
4:15 AM 60.8 °F 57.2 °F 88% 30.09 in 10.0 mi SE 3.5 mph - N/A   Mostly Cloudy
4:25 AM 60.8 °F 59.0 °F 94% 30.09 in 10.0 mi Calm Calm - N/A   Mostly Cloudy
4:55 AM 61.9 °F 58.3 °F 88% 30.09 in 10.0 mi Calm Calm - N/A   Partly Cloudy
5:55 AM 61.2 °F 58.6 °F 91% 30.09 in 10.0 mi Calm Calm - N/A   Clear
6:55 AM 63.3 °F 61.0 °F 92% 30.09 in 10.0 mi SE 4.6 mph - N/A   Clear
7:27 AM 64.4 °F 62.6 °F 94% 30.11 in 10.0 mi SE 6.9 mph - N/A   Partly Cloudy
7:42 AM 66.2 °F 64.4 °F 94% 30.11 in 10.0 mi SE 5.8 mph - N/A   Mostly Cloudy
7:55 AM 66.0 °F 64.2 °F 94% 30.11 in 10.0 mi SE 6.9 mph - N/A   Overcast
7:59 AM 66.2 °F 64.4 °F 94% 30.12 in 10.0 mi SSE 5.8 mph - N/A   Overcast
8:55 AM 69.3 °F 67.8 °F 95% 30.13 in 5.0 mi SE 6.9 mph - N/A   Overcast
9:20 AM 71.6 °F 69.8 °F 94% 30.12 in 5.0 mi SSE 8.1 mph - N/A   Overcast
9:40 AM 71.6 °F 69.8 °F 94% 30.12 in 10.0 mi SSE 8.1 mph - N/A   Overcast
9:55 AM 73.2 °F 69.3 °F 87% 30.13 in 10.0 mi SW 8.1 mph - N/A   Mostly Cloudy
10:10 AM 73.4 °F 69.8 °F 88% 30.11 in 10.0 mi SSE 11.5 mph - N/A   Mostly Cloudy
10:25 AM 75.2 °F 69.8 °F 83% 30.10 in 10.0 mi SSE 10.4 mph - N/A   Mostly Cloudy
10:40 AM 75.2 °F 69.8 °F 83% 30.10 in 6.0 mi South 9.2 mph - N/A Rain Light Rain
10:55 AM 73.4 °F 69.8 °F 88% 30.10 in 10.0 mi South 9.2 mph - 0.03 in   Light Drizzle
11:10 AM 75.2 °F 69.8 °F 83% 30.08 in 10.0 mi SSE 11.5 mph 17.3 mph N/A   Mostly Cloudy
11:55 AM 76.1 °F 69.8 °F 81% 30.06 in 10.0 mi South 17.3 mph 23.0 mph 0.00 in   Mostly Cloudy
12:55 PM 77.7 °F 69.1 °F 75% 30.04 in 10.0 mi South 13.8 mph 21.9 mph N/A   Mostly Cloudy
1:55 PM 76.8 °F 69.1 °F 77% 30.02 in 10.0 mi South 13.8 mph - N/A Rain Light Rain
2:05 PM 77.0 °F 69.8 °F 78% 30.01 in 10.0 mi South 13.8 mph - N/A   Mostly Cloudy
2:55 PM 76.8 °F 69.3 °F 77% 30.02 in 10.0 mi South 13.8 mph - 0.00 in   Mostly Cloudy
3:55 PM 75.9 °F 70.2 °F 82% 30.01 in 10.0 mi South 10.4 mph - N/A   Mostly Cloudy
4:40 PM 75.2 °F 69.8 °F 83% 30.01 in 10.0 mi South 10.4 mph - N/A   Mostly Cloudy
4:55 PM 74.5 °F 70.5 °F 87% 30.03 in 10.0 mi South 6.9 mph - N/A   Mostly Cloudy
5:45 PM 73.4 °F 71.6 °F 94% 30.02 in 10.0 mi South 6.9 mph - N/A Rain Light Rain Showers
5:55 PM 73.8 °F 70.7 °F 90% 30.04 in 6.0 mi South 8.1 mph - 0.00 in Rain Light Rain Showers
6:34 PM 73.4 °F 71.6 °F 94% 30.02 in 10.0 mi West 4.6 mph - N/A   Mostly Cloudy
6:51 PM 73.4 °F 71.6 °F 94% 30.03 in 6.0 mi WSW 3.5 mph - N/A Rain Light Rain Showers
6:55 PM 73.2 °F 71.1 °F 93% 30.05 in 5.0 mi SW 3.5 mph - 0.07 in Rain Light Rain Showers
7:10 PM 73.4 °F 71.6 °F 94% 30.04 in 10.0 mi SW 6.9 mph - N/A   Mostly Cloudy
7:35 PM 71.6 °F 69.8 °F 94% 30.04 in 10.0 mi SW 4.6 mph - N/A   Scattered Clouds
7:55 PM 72.0 °F 70.2 °F 94% 30.06 in 10.0 mi SSW 4.6 mph - 0.05 in   Mostly Cloudy
8:55 PM 69.8 °F 68.4 °F 95% 30.04 in 10.0 mi SSW 5.8 mph - N/A   Scattered Clouds
9:55 PM 69.3 °F 68.0 °F 96% 30.05 in 5.0 mi SSW 4.6 mph - N/A   Scattered Clouds
10:05 PM 69.8 °F 68.0 °F 94% 30.04 in 5.0 mi South 6.9 mph - N/A   Scattered Clouds
10:14 PM 69.8 °F 68.0 °F 94% 30.04 in 2.0 mi SSW 8.1 mph - N/A   Mostly Cloudy
10:55 PM 70.2 °F 69.6 °F 98% 30.04 in 3.0 mi SSW 6.9 mph - N/A   Mostly Cloudy
11:23 PM 69.8 °F 69.8 °F 100% 30.04 in 3.0 mi SW 8.1 mph - N/A   Mostly Cloudy
11:40 PM 69.8 °F 69.8 °F 100% 30.04 in 5.0 mi SSW 5.8 mph - N/A   Mostly Cloudy
11:55 PM 70.5 °F 70.0 °F 98% 30.05 in 5.0 mi SSW 8.1 mph - N/A   Mostly Cloudy
11:59 PM 69.8 °F 69.8 °F 100% 30.04 in 10.0 mi SSW 5.8 mph - N/A Rain Light Rain